Weather History for Erzurum, Turkey

Change the Weather History Date:

Saturday, November 17, 2012

  Actual Average Record
Temperature  
Mean Temperature 36 °F -  
Max Temperature 52 °F 37 °F 57 °F (2010)
Min Temperature 20 °F 22 °F 12 °F (2013)
Degree Days  
Heating Degree Days 29    
Moisture  
Dew Point 27 °F    
Average Humidity 79    
Maximum Humidity 100    
Minimum Humidity 26    
Precipitation  
Precipitation 0.00 in 0.04 in - ()
Sea Level Pressure  
Sea Level Pressure 30.29 in    
Wind  
Wind Speed 2 mph ()    
Max Wind Speed 7 mph    
Max Gust Speed -    
Visibility 8.3 miles    
Events      
Averages and records for this station are not official NWS values.
T = Trace of Precipitation, MM = Missing Value Source: Averaged Metar Reports

Daily Weather History Graph

Daily Weather History Graph

Search for Another Location

Airport:

Trip Planner

Search our weather history database for the weather conditions in past years. The results will help you decide how hot, cold, wet, or windy it might be!

Date:

Astronomy

Nov. 17, 2012 Rise Set
Actual Time 6:02 AM EET 3:57 PM EET
Civil Twilight 5:33 AM EET 4:26 PM EET
Nautical Twilight 5:00 AM EET 4:59 PM EET
Astronomical Twilight 4:28 AM EET 5:31 PM EET
Moon 9:30 AM EET (11/17) 7:41 PM EET (11/17)
Length of Visible Light 10h 52m
Length of Day
9h 54m
Waxing Crescent, 17% of the Moon is Illuminated
Nov 17
Waxing Crescent
Nov 20
First Quarter
Nov 28
Full
Dec 6
Last Quarter
Dec 13
New

Hourly Weather History & Observations

Time (EET) Temp. Windchill Dew Point Humidity Pressure Visibility Wind Dir Wind Speed Gust Speed Precip Events Conditions
12:20 AM 26.6 °F 21.2 °F 24.8 °F 93% 30.33 in - WSW 4.6 mph - N/A   Clear
12:50 AM 24.8 °F - 24.8 °F 100% 30.33 in - SW 1.2 mph - N/A   Clear
1:20 AM 24.8 °F - 24.8 °F 100% 30.33 in - West 2.3 mph - N/A   Clear
1:50 AM 24.8 °F - 23.0 °F 93% 30.33 in - SSE 1.2 mph - N/A   Clear
2:00 AM 24 °F - 24 °F 100%  in 12 mi SSE 1.2 mph - -  
2:20 AM 24.8 °F - 23.0 °F 93% 30.30 in - South 2.3 mph - N/A   Clear
2:50 AM 23.0 °F - 23.0 °F 100% 30.30 in - NNW 2.3 mph - N/A   Clear
3:20 AM 23.0 °F - 23.0 °F 100% 30.30 in - Variable 2.3 mph - N/A   Clear
3:50 AM 23.0 °F - 23.0 °F 100% 30.30 in - Calm Calm - N/A   Clear
4:20 AM 23.0 °F 18.4 °F 23.0 °F 100% 30.30 in - SSE 3.5 mph - N/A   Clear
4:50 AM 23.0 °F - 23.0 °F 100% 30.30 in - Calm Calm - N/A   Clear
5:20 AM 21.2 °F - 19.4 °F 93% 30.33 in - Calm Calm - N/A   Clear
5:50 AM 21.2 °F - 21.2 °F 100% 30.33 in - Calm Calm - N/A   Clear
6:20 AM 21.2 °F - 21.2 °F 100% 30.33 in - NW 1.2 mph - N/A   Clear
6:50 AM 24.8 °F - 23.0 °F 93% 30.33 in - Calm Calm - N/A   Clear
7:20 AM 28.4 °F - 26.6 °F 93% 30.33 in - Variable 1.2 mph - N/A   Clear
7:50 AM 33.8 °F - 30.2 °F 87% 30.33 in - Calm Calm - N/A   Clear
8:00 AM 33 °F - 29 °F 78%  in 12 mi Calm Calm - -  
8:20 AM 33.8 °F - 30.2 °F 87% 30.33 in - Calm Calm - N/A   Clear
8:50 AM 35.6 °F - 32.0 °F 87% 30.33 in - Variable 1.2 mph - N/A   Clear
9:20 AM 39.2 °F - 32.0 °F 75% 30.33 in - Variable 1.2 mph - N/A   Clear
9:50 AM 41.0 °F - 30.2 °F 65% 30.33 in - Variable 1.2 mph - N/A   Clear
10:20 AM 44.6 °F - 32.0 °F 61% 30.30 in - Variable 2.3 mph - N/A   Clear
10:50 AM 44.6 °F 43.1 °F 32.0 °F 61% 30.30 in - Variable 3.5 mph - N/A   Clear
11:20 AM 46.4 °F 45.2 °F 33.8 °F 62% 30.30 in 6.2 mi ENE 3.5 mph - N/A   Partly Cloudy
11:50 AM 48.2 °F - 32.0 °F 54% 30.27 in - ENE 4.6 mph - N/A   Clear
12:20 PM 50.0 °F - 30.2 °F 47% 30.27 in - East 3.5 mph - N/A   Clear
12:50 PM 50.0 °F - 26.6 °F 40% 30.24 in - Variable 4.6 mph - N/A   Clear
1:20 PM 51.8 °F - 23.0 °F 33% 30.24 in - NNE 4.6 mph - N/A   Clear
1:50 PM 51.8 °F - 26.6 °F 38% 30.24 in - East 4.6 mph - N/A   Clear
2:00 PM 52 °F - 28 °F 26%  in 12 mi East 4.6 mph - -   Scattered Clouds
2:20 PM 51.8 °F - 23.0 °F 33% 30.24 in - East 4.6 mph - N/A   Clear
2:50 PM 51.8 °F - 28.4 °F 41% 30.24 in - East 3.5 mph - N/A   Clear
3:20 PM 48.2 °F - 30.2 °F 50% 30.24 in - East 4.6 mph - N/A   Clear
3:50 PM 46.4 °F 44.3 °F 32.0 °F 57% 30.24 in - ENE 4.6 mph - N/A   Clear
4:20 PM 44.6 °F 41.4 °F 30.2 °F 57% 30.24 in 6.2 mi East 5.8 mph - N/A   Partly Cloudy
4:50 PM 39.2 °F 37.0 °F 32.0 °F 75% 30.24 in 6.2 mi SE 3.5 mph - N/A   Partly Cloudy
5:20 PM 37.4 °F 32.8 °F 30.2 °F 75% 30.24 in 6.2 mi WSW 5.8 mph - N/A   Partly Cloudy
5:50 PM 33.8 °F - 28.4 °F 81% 30.27 in 6.2 mi Variable 2.3 mph - N/A   Partly Cloudy
6:20 PM 35.6 °F 29.9 °F 28.4 °F 75% 30.27 in 6.2 mi SSW 6.9 mph - N/A   Partly Cloudy
6:50 PM 33.8 °F - 26.6 °F 75% 30.27 in 6.2 mi Variable 2.3 mph - N/A   Partly Cloudy
7:20 PM 30.2 °F 26.7 °F 28.4 °F 93% 30.27 in - SSW 3.5 mph - N/A   Clear
7:50 PM 30.2 °F - 28.4 °F 93% 30.27 in - NNE 2.3 mph - N/A   Clear
8:00 PM 30 °F - 28 °F 86%  in 12 mi NNE 2.3 mph - -  
8:20 PM 30.2 °F - 28.4 °F 93% 30.27 in - NE 2.3 mph - N/A   Clear
8:50 PM 30.2 °F - 28.4 °F 93% 30.27 in - Variable 1.2 mph - N/A   Clear
9:20 PM 28.4 °F - 26.6 °F 93% 30.27 in - Calm Calm - N/A   Clear
9:50 PM 28.4 °F - 24.8 °F 86% 30.24 in - Calm Calm - N/A   Clear
10:20 PM 26.6 °F 20.0 °F 24.8 °F 93% 30.27 in - SW 5.8 mph - N/A   Clear
10:50 PM 26.6 °F - 23.0 °F 86% 30.27 in - Variable 2.3 mph - N/A   Clear
11:20 PM 26.6 °F - 24.8 °F 93% 30.27 in - Variable 1.2 mph - N/A   Clear
11:50 PM 24.8 °F - 24.8 °F 100% 30.27 in - Variable 1.2 mph - N/A   Clear